www.pogodaiklimat.ru

Погода и климат >> Архив погоды >> Боливия >> Concepcion


ПОГОДА в Concepcion

  • Прогноз погоды в Concepcion
  • Монитор погоды в Concepcion
  • Климат города

АРХИВ ПОГОДЫ в Concepcion

Время (UTC), дата Ветер
(напр.,м/с)
 
Видим.   Явления Облачность Т
(С)
Тd
(С)
f
(%)
Тe
(С)
Тes
(С)
Комфортность P
(гПа)
Po
(гПа)
Тmin
(С)
Tmax
(С)
R
(мм)
R24
(мм)
S
(см)
12 14.04 Ю 5 20 км 10/10 180 м
[St]
+17.5 +16.7 95 +17 +17 1020.3 961.8 +16.0 8
15 14.04 Ю 4 30 км 10/10 360 м
[Sc]
+19.5 +17.2 87 +22 +22 комфорт 1021.7 963.2
18 14.04 Ю 4 30 км 10/10 500 м
[Sc]
+22.0 +19.1 84 +27 +27 душно 1019.4 961.0
21 14.04 Ю 5 30 км 10/10 500 м
[Sc]
+22.0 +19.1 84 +27 +27 душно 1017.1 958.7 +24.0
12 15.04 Ю 5 30 км 10/10 450 м
[Sc]
+18.0 +17.2 95 +18 +18 1022.1 963.6 +17.0
15 15.04 Ю 5 30 км 10/10 450 м
[Sc]
+19.0 +17.5 91 +20 +20 1024.0 964.9
18 15.04 Ю 5 30 км 10/10 450 м
[Sc]
+23.0 +18.6 76 +29 +29 очень
душно
1021.2 962.0
21 15.04 Ю 5 30 км 10/10 450 м
[Sc]
+22.0 +18.3 80 +27 +27 душно 1020.1 961.2 +24.0
12 16.04 Ю 5 30 км 10/10 300 м
[Sc]
+20.5 +19.8 96 +25 +25 комфорт 1020.7 962.2 +18.0
15 16.04 Ю 6 30 км 9/9 450 м
[Sc]
+23.0 +20.1 84 +30 +30 очень
душно
1021.5 963.0
18 16.04 ЮВ 3 30 км 10/10 500 м
[Sc]
+25.0 +20.8 78 +31 +31 очень
душно
1018.6 960.1
21 16.04 ЮВ 3 30 км 3/3 500 м
[Cu hum]
+25.0 +20.8 78 +31 +32 очень
душно
1016.5 958.0 +27.0
12 17.04 Ю 2 30 км ясно +19.0 +18.7 98 +21 +25 комфорт 1017.5 959.3 +17.0
15 17.04 ЮВ 2 30 км 3/3 450 м
[Cu hum]
+26.0 +20.3 71 +32 +43 очень
душно
1018.1 959.8
18 17.04 штиль 0 30 км 6/6 500 м
[Cu med, cong]
+28.0 +22.5 72 +37 +44 очень
душно
1016.3 957.8
21 17.04 штиль 0 30 км гроза без осадков {дождь} туман 8/5 450 м
[Cb cap Ac trans]
+19.0 +17.5 91 +20 +21 1013.3 955.8 +30.0
12 18.04 штиль 0 30 км ясно +20.6 +20.5 99 +25 +29 комфорт 1019.3 960.8 +17.0 17
15 18.04 ЮВ 4 30 км 4/4 400 м
[Sc]
+26.0 +22.6 82 +34 +41 очень
душно
1019.8 961.3
18 18.04 ЮВ 3 30 км 8/8 500 м
[Cu med, cong]
+29.0 +22.2 67 +38 +40 очень
душно
1017.0 958.5
21 18.04 ЮВ 5 30 км гроза без осадков туман 9/6 500 м
[Cb cap Ci sp]
+23.0 +17.8 73 +28 +29 душно 1015.7 957.4 +30.0
12 19.04 штиль 0 30 км 6/0 2000 м
[Ac lent]
+19.0 +18.3 96 +21 +23 комфорт 1018.5 960.3 +17.0 11
15 19.04 штиль 0 30 км 8/8 450 м
[Cu med, cong]
+26.0 +22.6 82 +34 +39 очень
душно
1019.0 960.7
18 19.04 СЗ 4 30 км 8/8 500 м
[Cu med, cong]
+28.0 +22.5 72 +37 +39 очень
душно
1016.3 957.8
21 19.04 СЗ 3 30 км 6/6 500 м
[Cu med, cong]
+27.5 +21.2 69 +35 +35 очень
душно
1014.1 955.7 +30.0
12 20.04 штиль 0 20 км 8/8 180 м
[St]
+21.0 +20.7 98 +26 +27 душно 1017.7 959.1 +19.0
15 20.04 С 3 30 км 6/6 400 м
[Sc]
+25.5 +22.0 81 +33 +38 очень
душно
1018.0 959.5
21 20.04 СЗ 3 30 км 3/3 500 м
[Cu hum]
+29.0 +22.2 67 +38 +38 очень
душно
1013.2 954.7 +30.2

 

Местоположение метеостанции Concepcion (Боливия): широта -16.14 долгота -62.01 высота над уровнем моря 497 м.

В архиве по умолчанию представлена погода в Concepcion за последнюю неделю. Архивные данные за месяц целиком и за предыдущие месяцы, начиная с января 2011 года, Вы можете получить, выбрав интересующий диапазон дат из раскрывающегося списка и нажав кнопку "Ввод!".


*Определитесь, кто Вы:
робот инопланетянин человек

Внимание! Время в таблицах - всемирное. Для получения местного времени необходимо прибавить поправку, которая в Concepcion равна -4 ч.

Смотрите также архив погоды в соседних городах и на ближайших метеорологических станциях:

Погода в San Javier (Боливия) (50 км)
Погода в San Ignacio De Velasco (Боливия) (115 км)
Погода в Ascencion De Guaray (Боливия) (126 км)
Погода в Viru-Viru (Боливия) (204 км)
Погода в Santa Cruz (Боливия) (223 км)
Погода в San Jose De Chiquitos (Боливия) (229 км)
Погода в Vila Bela da S Trind (Бразилия) (258 км)
Погода в Pontes E Lacerda (Бразилия) (302 км)
Погода в Vallegrande (Боливия) (340 км)
Погода в Robore (Боливия) (340 км)

Пояснения к столбцам:

Ветер - указаны скорость ветра в м/с - средняя за 10 мин, порывы в срок и между сроками (в фигурных скобках) и направление, откуда дует ветер: С - северный, СВ - северо-восточный, В - восточный, ЮВ - юго-восточный, Ю - южный, ЮЗ - юго-западный, З - западный, СЗ - северо-западный.
Видимость - горизонтальная дальность видимости в метрах или километрах. При видимости от 1 до 10 км при отсутствии осадков обычно наблюдается дымка, при ухудшении видимости до 1 км и менее - туман. В сухую погоду видимость может ухудшаться дымом, пылью или мглою.
Явления - указаны атмосферные явления, наблюдавшиеся в срок или в последний час перед сроком; фигурными скобками обозначены явления, наблюдавшиеся между сроками (за 1-3 часа до срока); квадратными скобками обозначены град или гололедные отложения с указанием их диаметра в мм.
Облачность - указаны через наклонную черту общая и нижняя облачность в баллах и высота нижней границы облаков в метрах; квадратными скобками обозначены формы облаков: Ci - перистые, Cs - перисто-слоистые, Cc - перисто-кучевые, Ac - высококучевые, As - высокослоистые, Sc - слоисто-кучевые, Ns - слоисто-дождевые, Cu - кучевые, Cb - кучево-дождевые. Подробнее классификацию облаков см. в Атласе облаков (PDF).
T - Температура воздуха - температура, измеренная на высоте 2 м над землей.
Td - Температура точки росы - температура, при понижении до которой содержащийся в воздухе водяной пар достигнет насыщения.
f - Относительная влажность воздуха - влажноcть воздуха, измеренная на высоте 2 м над землей.
Te - Эффективная температура - температура, которую ощущает одетый по сезону человек в тени. Характеристика душности погоды. При расчете учитывается влияние влажности воздуха и скорости ветра на теплоощущения человека.
Tes - Эффективная температура на солнце - температура, которую ощущает человек, с поправкой на солнечный нагрев. Характеристика знойности погоды. Зависит от высоты солнца над горизонтом, облачности и скорости ветра. Ночью, в пасмурную погоду, а также при ветре 12 м/с и более поправка равна нулю.
P - Атмосферное давление - приведенное к уровню моря атмосферное давление.
Po - Атмосферное давление - измеренное на уровне метеостанции атмосферное давление.
Tmin - Минимальная температура - минимум температуры воздуха на высоте 2 м над землей.
Tmax - Максимальная температура - максимум температуры воздуха на высоте 2 м над землей.
R - Количество осадков - Количество выпавших осадков за период времени, мм. При наведении курсора мыши на число - период времени, за который выпало указанное количество осадков.
R24 - Количество осадков - Количество выпавших осадков за 24 часа, мм.
S - Снежный покров - Высота снежного покрова, см. При наведении курсора мыши на число - состояние снежного покрова и степень покрытия местности в баллах.